Location: *
(51.1248°S, 108.4023°W)
Time: 02:27:47
(UTC+00:00)

Cosmos 1544 - Pass Details

Date: 29 October 2021
Orbit: 467 x 486 km, 82.5° (Epoch: 03 December)

Event Time Altitude Azimuth Distance (km) Brightness Sun altitude
Exits shadow 07:45:26 47° 132° (SE) 657 3.9 -24.5°
Drops below altitude 10° 07:48:19 10° 163° (SSE) 1,687 6.9 -24.4°
Sets 07:50:28 0° 166° (SSE) 2,579 8.2 -24.3°
